Location: Degersen
(52.2871°N, 9.5716°E)
Time: 05:58:37
(UTC+00:00)

Gbstr 26 Del rocket - Pass Details

Date: 20 January 2026
Orbit: 490 x 1217 km, 51.8° (Epoch: 18 February)

Event Time Altitude Azimuth Distance (km) Brightness Sun altitude
Exits shadow 05:53:03 13° 263° (W) 2,768 5.8 -12.8°
Maximum altitude 05:59:41 86° 176° (S) 1,024 4.1 -11.8°
Drops below altitude 10° 06:05:51 10° 88° (E) 2,549 7.4 -10.9°
Sets 06:08:08 0° 88° (E) 3,380 8.3 -10.6°
